Voltar ao catálogo

DELTA 1 DEB

AtivoLEO
NORAD 3126·DEBRIS·🇺🇸 United States

Lançado Jan 11, 1968 de Vandenberg Space Force Base

Loading…

Próximas Passagens (próximas 24 horas)

TLE

AtualizadoSource: Space-Track

Época: Sep 13, 2026, 11:22 UTC

1 03126U 68002C   26256.47429039 -.00000050  00000-0  89894-4 0  9995
2 03126 106.0708 243.4111 0321760  20.3977 129.3883 12.82475131745609

Acompanhe DELTA 1 DEB em tempo real com AllMySat

Download on the App Store